Time,TemperatureF,DewpointF,PressureIn,WindDirection,WindDirectionDegrees,WindSpeedMPH,WindSpeedGustMPH,Humidity,HourlyPrecipIn,Conditions,Clouds,dailyrainin,SoftwareType,DateUTC
2013-07-26 00:03:00,61.8,55.0,29.96,North,5,0.0,2.0,79,0.00,,,0.00,weatherlink.com 1.10,2013-07-26 04:03:00,
2013-07-26 00:18:00,61.5,55.0,29.96,NNE,19,3.0,3.0,78,0.00,,,0.00,weatherlink.com 1.10,2013-07-26 04:18:00,
2013-07-26 00:33:00,61.1,55.0,29.96,North,5,0.0,2.0,80,0.00,,,0.00,weatherlink.com 1.10,2013-07-26 04:33:00,
2013-07-26 00:48:00,60.8,55.0,29.96,North,360,0.0,2.0,80,0.00,,,0.00,weatherlink.com 1.10,2013-07-26 04:48:00,
2013-07-26 01:03:00,60.7,55.0,29.96,North,10,2.0,2.0,80,0.00,,,0.00,weatherlink.com 1.10,2013-07-26 05:03:00,
2013-07-26 01:18:00,60.4,54.0,29.97,NNE,12,0.0,1.0,80,0.00,,,0.00,weatherlink.com 1.10,2013-07-26 05:18:00,
2013-07-26 01:33:00,59.4,54.0,29.96,North,5,0.0,0.0,83,0.00,,,0.00,weatherlink.com 1.10,2013-07-26 05:33:00,
2013-07-26 01:48:00,58.6,54.0,29.96,North,5,0.0,0.0,84,0.00,,,0.00,weatherlink.com 1.10,2013-07-26 05:48:00,
2013-07-26 02:03:00,58.9,54.0,29.96,North,5,0.0,0.0,83,0.00,,,0.00,weatherlink.com 1.10,2013-07-26 06:03:00,
2013-07-26 02:18:00,58.7,54.0,29.96,North,5,0.0,0.0,83,0.00,,,0.00,weatherlink.com 1.10,2013-07-26 06:18:00,
2013-07-26 02:33:00,58.4,54.0,29.96,North,5,0.0,0.0,84,0.00,,,0.00,weatherlink.com 1.10,2013-07-26 06:33:00,
2013-07-26 02:48:00,58.0,54.0,29.95,North,5,0.0,0.0,86,0.00,,,0.00,weatherlink.com 1.10,2013-07-26 06:48:00,
2013-07-26 03:03:00,57.4,54.0,29.95,North,5,0.0,0.0,87,0.00,,,0.00,weatherlink.com 1.10,2013-07-26 07:03:00,
2013-07-26 03:18:00,56.8,53.0,29.95,North,5,0.0,0.0,88,0.00,,,0.00,weatherlink.com 1.10,2013-07-26 07:18:00,
2013-07-26 03:33:00,55.9,53.0,29.95,North,5,0.0,0.0,89,0.00,,,0.00,weatherlink.com 1.10,2013-07-26 07:33:00,
2013-07-26 03:48:00,55.1,53.0,29.95,North,5,0.0,0.0,91,0.00,,,0.00,weatherlink.com 1.10,2013-07-26 07:48:00,
2013-07-26 04:03:00,54.9,53.0,29.94,North,5,0.0,0.0,92,0.00,,,0.00,weatherlink.com 1.10,2013-07-26 08:03:00,
2013-07-26 04:18:00,54.5,52.0,29.94,North,5,0.0,0.0,92,0.00,,,0.00,weatherlink.com 1.10,2013-07-26 08:18:00,
2013-07-26 04:33:00,54.4,53.0,29.94,North,5,0.0,0.0,93,0.00,,,0.00,weatherlink.com 1.10,2013-07-26 08:33:00,
2013-07-26 04:49:00,54.6,53.0,29.94,WSW,241,1.0,3.0,95,0.00,,,0.00,weatherlink.com 1.10,2013-07-26 08:49:00,
2013-07-26 05:04:00,55.1,54.0,29.94,WSW,250,0.0,2.0,95,0.00,,,0.00,weatherlink.com 1.10,2013-07-26 09:04:00,
2013-07-26 05:19:00,55.8,55.0,29.95,West,277,0.0,3.0,96,0.00,,,0.00,weatherlink.com 1.10,2013-07-26 09:19:00,
2013-07-26 05:34:00,55.7,55.0,29.95,West,277,0.0,1.0,97,0.00,,,0.00,weatherlink.com 1.10,2013-07-26 09:34:00,
2013-07-26 05:49:00,54.9,54.0,29.95,West,277,0.0,0.0,97,0.00,,,0.00,weatherlink.com 1.10,2013-07-26 09:49:00,
2013-07-26 06:04:00,54.7,54.0,29.95,West,277,0.0,0.0,97,0.00,,,0.00,weatherlink.com 1.10,2013-07-26 10:04:00,
2013-07-26 06:19:00,53.9,53.0,29.95,West,277,0.0,0.0,97,0.00,,,0.00,weatherlink.com 1.10,2013-07-26 10:19:00,
2013-07-26 06:34:00,53.3,53.0,29.95,West,277,0.0,0.0,97,0.00,,,0.00,weatherlink.com 1.10,2013-07-26 10:34:00,
2013-07-26 06:49:00,53.8,53.0,29.96,West,277,0.0,0.0,98,0.00,,,0.00,weatherlink.com 1.10,2013-07-26 10:49:00,
2013-07-26 07:04:00,55.3,55.0,29.96,West,277,0.0,0.0,99,0.00,,,0.00,weatherlink.com 1.10,2013-07-26 11:04:00,
2013-07-26 07:19:00,56.4,56.0,29.96,West,277,0.0,0.0,99,0.00,,,0.00,weatherlink.com 1.10,2013-07-26 11:19:00,
2013-07-26 07:34:00,57.6,57.0,29.96,West,277,0.0,0.0,99,0.00,,,0.00,weatherlink.com 1.10,2013-07-26 11:34:00,
2013-07-26 07:49:00,57.8,57.0,29.96,West,279,2.0,2.0,98,0.00,,,0.00,weatherlink.com 1.10,2013-07-26 11:49:00,
2013-07-26 08:04:00,58.2,58.0,29.97,WNW,297,1.0,3.0,98,0.00,,,0.00,weatherlink.com 1.10,2013-07-26 12:04:00,
2013-07-26 08:19:00,58.7,58.0,29.97,NW,307,0.0,3.0,98,0.00,,,0.00,weatherlink.com 1.10,2013-07-26 12:19:00,
2013-07-26 08:34:00,59.6,59.0,29.97,NNW,344,0.0,3.0,96,0.00,,,0.00,weatherlink.com 1.10,2013-07-26 12:34:00,
2013-07-26 08:49:00,60.7,59.0,29.97,NNW,331,1.0,3.0,93,0.00,,,0.00,weatherlink.com 1.10,2013-07-26 12:49:00,
2013-07-26 09:04:00,61.4,59.0,29.97,North,355,2.0,4.0,91,0.00,,,0.00,weatherlink.com 1.10,2013-07-26 13:04:00,
2013-07-26 09:19:00,62.3,59.0,29.97,WNW,300,2.0,4.0,89,0.00,,,0.00,weatherlink.com 1.10,2013-07-26 13:19:00,
2013-07-26 09:34:00,63.1,60.0,29.97,NW,313,2.0,4.0,88,0.00,,,0.00,weatherlink.com 1.10,2013-07-26 13:34:00,
2013-07-26 09:49:00,63.6,59.0,29.97,NW,326,0.0,6.0,85,0.00,,,0.00,weatherlink.com 1.10,2013-07-26 13:49:00,
2013-07-26 10:04:00,64.3,60.0,29.97,North,355,0.0,5.0,85,0.00,,,0.00,weatherlink.com 1.10,2013-07-26 14:04:00,
2013-07-26 10:19:00,65.1,60.0,29.97,North,350,0.0,5.0,82,0.00,,,0.00,weatherlink.com 1.10,2013-07-26 14:19:00,
2013-07-26 10:34:00,65.6,60.0,29.97,NNW,347,1.0,6.0,81,0.00,,,0.00,weatherlink.com 1.10,2013-07-26 14:34:00,
2013-07-26 10:49:00,66.3,59.0,29.97,NW,317,4.0,6.0,76,0.00,,,0.00,weatherlink.com 1.10,2013-07-26 14:49:00,
2013-07-26 11:04:00,66.7,59.0,29.97,WNW,292,3.0,5.0,77,0.00,,,0.00,weatherlink.com 1.10,2013-07-26 15:04:00,
2013-07-26 11:19:00,67.0,59.0,29.96,West,281,3.0,5.0,76,0.00,,,0.00,weatherlink.com 1.10,2013-07-26 15:19:00,
2013-07-26 11:34:00,67.5,59.0,29.96,SW,228,1.0,5.0,74,0.00,,,0.00,weatherlink.com 1.10,2013-07-26 15:34:00,
2013-07-26 11:49:00,68.6,58.0,29.96,WSW,243,2.0,4.0,69,0.00,,,0.00,weatherlink.com 1.10,2013-07-26 15:49:00,
2013-07-26 12:04:00,69.5,60.0,29.96,NW,319,3.0,5.0,71,0.00,,,0.00,weatherlink.com 1.10,2013-07-26 16:04:00,
2013-07-26 12:19:00,69.6,58.0,29.95,North,355,0.0,4.0,67,0.00,,,0.00,weatherlink.com 1.10,2013-07-26 16:19:00,
2013-07-26 12:34:00,69.6,59.0,29.95,WNW,300,3.0,5.0,70,0.00,,,0.00,weatherlink.com 1.10,2013-07-26 16:34:00,
2013-07-26 12:49:00,70.8,59.0,29.95,WSW,254,3.0,8.0,67,0.00,,,0.00,weatherlink.com 1.10,2013-07-26 16:49:00,
2013-07-26 13:04:00,70.9,58.0,29.94,North,355,2.0,6.0,64,0.00,,,0.00,weatherlink.com 1.10,2013-07-26 17:04:00,
2013-07-26 13:19:00,71.0,57.0,29.94,NNW,346,1.0,6.0,62,0.00,,,0.00,weatherlink.com 1.10,2013-07-26 17:19:00,
2013-07-26 13:34:00,71.3,57.0,29.94,WSW,256,6.0,6.0,60,0.00,,,0.00,weatherlink.com 1.10,2013-07-26 17:34:00,
2013-07-26 13:49:00,71.8,57.0,29.94,WNW,286,6.0,7.0,60,0.00,,,0.00,weatherlink.com 1.10,2013-07-26 17:49:00,
2013-07-26 14:04:00,71.8,56.0,29.93,NW,315,3.0,4.0,58,0.00,,,0.00,weatherlink.com 1.10,2013-07-26 18:04:00,
2013-07-26 14:19:00,72.1,56.0,29.93,NNW,331,0.0,8.0,58,0.00,,,0.00,weatherlink.com 1.10,2013-07-26 18:19:00,
2013-07-26 14:34:00,73.7,58.0,29.93,NW,314,5.0,7.0,58,0.00,,,0.00,weatherlink.com 1.10,2013-07-26 18:34:00,
2013-07-26 14:49:00,73.7,58.0,29.92,North,360,3.0,7.0,58,0.00,,,0.00,weatherlink.com 1.10,2013-07-26 18:49:00,
2013-07-26 15:04:00,72.7,58.0,29.92,NNW,342,5.0,7.0,60,0.00,,,0.00,weatherlink.com 1.10,2013-07-26 19:04:00,
2013-07-26 15:19:00,73.4,59.0,29.92,North,355,0.0,6.0,61,0.00,,,0.00,weatherlink.com 1.10,2013-07-26 19:19:00,
2013-07-26 15:34:00,73.9,57.0,29.92,NNE,30,0.0,9.0,56,0.00,,,0.00,weatherlink.com 1.10,2013-07-26 19:34:00,
2013-07-26 15:49:00,73.9,56.0,29.92,WNW,300,2.0,8.0,53,0.00,,,0.00,weatherlink.com 1.10,2013-07-26 19:49:00,
2013-07-26 16:05:00,73.3,55.0,29.91,NNW,348,0.0,4.0,53,0.00,,,0.00,weatherlink.com 1.10,2013-07-26 20:05:00,
2013-07-26 16:20:00,74.3,54.0,29.91,North,355,2.0,7.0,50,0.00,,,0.00,weatherlink.com 1.10,2013-07-26 20:20:00,
2013-07-26 16:35:00,74.2,54.0,29.91,NNW,340,2.0,5.0,50,0.00,,,0.00,weatherlink.com 1.10,2013-07-26 20:35:00,
2013-07-26 16:50:00,75.7,55.0,29.91,WNW,294,3.0,5.0,49,0.00,,,0.00,weatherlink.com 1.10,2013-07-26 20:50:00,
2013-07-26 17:05:00,74.0,55.0,29.90,NW,309,0.0,5.0,52,0.00,,,0.00,weatherlink.com 1.10,2013-07-26 21:05:00,
2013-07-26 17:20:00,75.8,57.0,29.90,West,268,0.0,2.0,53,0.00,,,0.00,weatherlink.com 1.10,2013-07-26 21:20:00,
2013-07-26 17:35:00,80.6,59.0,29.90,ESE,107,0.0,0.0,48,0.00,,,0.00,weatherlink.com 1.10,2013-07-26 21:35:00,
2013-07-26 17:50:00,79.7,59.0,29.89,ENE,73,0.0,0.0,50,0.00,,,0.00,weatherlink.com 1.10,2013-07-26 21:50:00,
2013-07-26 18:05:00,78.8,59.0,29.89,ENE,72,0.0,0.0,51,0.00,,,0.00,weatherlink.com 1.10,2013-07-26 22:05:00,
2013-07-26 18:20:00,83.1,59.0,29.89,ENE,72,0.0,0.0,44,0.00,,,0.00,weatherlink.com 1.10,2013-07-26 22:20:00,
2013-07-26 18:35:00,85.7,60.0,29.88,ENE,72,0.0,0.0,42,0.00,,,0.00,weatherlink.com 1.10,2013-07-26 22:35:00,
2013-07-26 18:50:00,86.7,60.0,29.88,ENE,72,0.0,0.0,41,0.00,,,0.00,weatherlink.com 1.10,2013-07-26 22:50:00,
2013-07-26 19:05:00,87.4,61.0,29.88,ENE,72,0.0,0.0,41,0.00,,,0.00,weatherlink.com 1.10,2013-07-26 23:05:00,
2013-07-26 19:20:00,86.1,61.0,29.88,ENE,72,0.0,0.0,43,0.00,,,0.00,weatherlink.com 1.10,2013-07-26 23:20:00,
2013-07-26 19:35:00,85.8,61.0,29.88,ENE,72,0.0,0.0,43,0.00,,,0.00,weatherlink.com 1.10,2013-07-26 23:35:00,
2013-07-26 19:50:00,86.0,60.0,29.88,ENE,72,0.0,0.0,42,0.00,,,0.00,weatherlink.com 1.10,2013-07-26 23:50:00,
2013-07-26 20:06:00,84.6,58.0,29.88,ENE,72,0.0,0.0,40,0.00,,,0.00,weatherlink.com 1.10,2013-07-27 00:06:00,
2013-07-26 20:21:00,82.7,57.0,29.88,ENE,72,0.0,0.0,42,0.00,,,0.00,weatherlink.com 1.10,2013-07-27 00:21:00,
2013-07-26 20:36:00,80.2,55.0,29.88,ENE,72,0.0,0.0,42,0.00,,,0.00,weatherlink.com 1.10,2013-07-27 00:36:00,
2013-07-26 20:51:00,75.4,55.0,29.89,ENE,72,0.0,0.0,50,0.00,,,0.00,weatherlink.com 1.10,2013-07-27 00:51:00,
2013-07-26 21:06:00,72.3,56.0,29.89,ENE,72,0.0,0.0,57,0.00,,,0.00,weatherlink.com 1.10,2013-07-27 01:06:00,
2013-07-26 21:21:00,70.3,56.0,29.89,ENE,72,0.0,0.0,60,0.00,,,0.00,weatherlink.com 1.10,2013-07-27 01:21:00,
2013-07-26 21:36:00,68.7,55.0,29.89,ENE,72,0.0,0.0,63,0.00,,,0.00,weatherlink.com 1.10,2013-07-27 01:36:00,
2013-07-26 21:51:00,67.6,56.0,29.89,ENE,72,0.0,0.0,66,0.00,,,0.00,weatherlink.com 1.10,2013-07-27 01:51:00,
2013-07-26 22:06:00,66.6,56.0,29.89,ENE,72,0.0,0.0,69,0.00,,,0.00,weatherlink.com 1.10,2013-07-27 02:06:00,
2013-07-26 22:21:00,65.3,57.0,29.89,ENE,72,0.0,0.0,75,0.00,,,0.00,weatherlink.com 1.10,2013-07-27 02:21:00,
2013-07-26 22:35:00,64.3,57.0,29.89,ENE,72,0.0,0.0,77,0.00,,,0.00,weatherlink.com 1.10,2013-07-27 02:35:00,
2013-07-26 22:52:00,63.9,56.0,29.89,ENE,72,0.0,0.0,76,0.00,,,0.00,weatherlink.com 1.10,2013-07-27 02:52:00,
2013-07-26 23:05:00,63.6,55.0,29.89,ENE,72,0.0,0.0,74,0.00,,,0.00,weatherlink.com 1.10,2013-07-27 03:05:00,
2013-07-26 23:20:00,63.5,55.0,29.89,ENE,72,0.0,0.0,75,0.00,,,0.00,weatherlink.com 1.10,2013-07-27 03:20:00,
2013-07-26 23:35:00,63.4,55.0,29.88,ENE,72,0.0,0.0,75,0.00,,,0.00,weatherlink.com 1.10,2013-07-27 03:35:00,
2013-07-26 23:50:00,63.3,56.0,29.88,ENE,72,0.0,0.0,77,0.00,,,0.00,weatherlink.com 1.10,2013-07-27 03:50:00,